Weather reports worldwide

Advertisment
Fair Isle, United Kingdom (3008): temperature & dewpoint: 21.04.2017 00:00:00 - 27.04.2017 00:00:00 (BST)Fair Isle, United Kingdom (3008): temperature -20cm & temperature -100cm: 21.04.2017 00:00:00 - 27.04.2017 00:00:00 (BST)Fair Isle, United Kingdom (3008): wind speed & gusts: 21.04.2017 00:00:00 - 27.04.2017 00:00:00 (BST)Fair Isle, United Kingdom (3008): wind direction: 21.04.2017 00:00:00 - 27.04.2017 00:00:00 (BST)Fair Isle, United Kingdom (3008): reduced air pressure: 21.04.2017 00:00:00 - 27.04.2017 00:00:00 (BST)Fair Isle, United Kingdom (3008): visibility: 21.04.2017 00:00:00 - 27.04.2017 00:00:00 (BST)Fair Isle, United Kingdom (3008): precipitation: 21.04.2017 00:00:00 - 27.04.2017 00:00:00 (BST)
Date & Time tt [°C] td [°C] tt -20cm [°C] tt -100cm [°C] ff [km/h] ff [kn] fx [km/h] fx [kn] dd ppp [hPa] vv [km] rr [mm]
27.04.2017 00:00:00 7,4 6,1 - - 35 19 59 32 WNW 1011,6 9 -
26.04.2017 23:00:00 7,4 6,2 - - 28 15 61 33 WNW 1011,9 11 0,4
26.04.2017 22:00:00 7,1 6,0 - - 39 21 59 32 WNW 1012,3 4,8 0,2
26.04.2017 21:00:00 7,1 6,0 - - 29 16 50 27 W 1013,0 10 0,0
26.04.2017 20:00:00 6,5 4,5 - - 35 19 50 27 W 1013,9 24 0,2
26.04.2017 19:00:00 6,2 4,2 - - 34 18 50 27 W 1014,5 29 0,0
26.04.2017 18:00:00 6,5 4,0 - - 31 17 - - W 1015,3 19 0,2
26.04.2017 17:00:00 5,7 3,8 - - 26 14 - - W 1016,2 8 0,2
26.04.2017 16:00:00 6,2 2,5 - - 22 12 - - W 1017,2 35 0,0
26.04.2017 15:00:00 5,7 1,6 - - 21 11 - - W 1017,7 45 0,0
26.04.2017 14:00:00 5,8 1,0 - - 22 12 - - WNW 1018,2 45 0,0
26.04.2017 13:00:00 5,2 -0,2 - - 16 9 - - WNW 1018,5 25 0,0
26.04.2017 12:00:00 5,4 1,2 - - 13 7 - - WNW 1018,5 45 0,0
26.04.2017 11:00:00 4,8 0,5 - - 16 9 - - NW 1018,7 22 0,0
26.04.2017 10:00:00 4,2 0,6 6,4 6,9 16 9 - - NW 1018,8 23 0,0
26.04.2017 09:00:00 4,1 -0,7 - - 22 12 - - NW 1018,8 35 0,0
26.04.2017 08:00:00 4,0 -1,2 - - 21 11 - - NNW 1018,6 35 0,0
26.04.2017 07:00:00 3,5 -3,5 - - 18 10 - - N - - 0,0
26.04.2017 06:00:00 3,5 -3,2 - - 24 13 - - NNW 1018,4 50 0,0
26.04.2017 05:00:00 2,7 -0,4 - - 26 14 - - N 1018,4 35 0,0
26.04.2017 04:00:00 2,6 0,4 - - 37 20 48 26 NNW 1018,7 26 0,6
26.04.2017 03:00:00 3,0 -0,4 - - 29 16 50 27 N 1018,8 30 0,0
26.04.2017 02:00:00 3,2 -1,0 - - 29 16 50 27 NNW 1018,8 28 0,0
26.04.2017 01:00:00 3,9 -1,9 - - 34 18 52 28 NNW 1018,7 26 0,0
26.04.2017 00:00:00 4,2 -1,7 - - 34 18 54 29 NNW 1018,7 27 0,0
25.04.2017 23:00:00 4,2 -1,8 - - 35 19 52 28 NNW 1018,6 22 0,0
25.04.2017 22:00:00 4,0 -0,1 - - 34 18 54 29 NNW 1018,6 21 0,0
25.04.2017 21:00:00 3,3 -0,2 - - 37 20 63 34 NNW 1018,6 25 0,0
25.04.2017 20:00:00 4,6 -0,7 - - 41 22 63 34 NNW 1018,1 19 0,0
25.04.2017 19:00:00 5,1 -1,6 - - 44 24 70 38 NNW 1017,7 20 0,0
25.04.2017 18:00:00 5,1 -0,7 - - 48 26 78 42 NNW 1017,4 22 0,0
25.04.2017 17:00:00 5,0 0,6 - - 48 26 78 42 NNW 1016,9 16 0,2
25.04.2017 16:00:00 3,4 1,7 - - 50 27 72 39 N 1016,8 14 0,2
25.04.2017 15:00:00 5,4 1,8 - - 44 24 76 41 N 1016,3 13 0,2
25.04.2017 14:00:00 5,6 0,3 - - 46 25 72 39 N 1015,5 16 0,0
25.04.2017 13:00:00 3,3 1,4 - - 57 31 81 44 N 1015,2 14 0,0
25.04.2017 12:00:00 3,6 1,7 - - 52 28 89 48 NNW 1014,5 14 0,2
25.04.2017 11:00:00 5,2 2,2 - - 48 26 74 40 N 1013,9 13 0,0
25.04.2017 10:00:00 4,5 1,9 6,7 7,0 55 30 76 41 N 1013,3 23 0,0
25.04.2017 09:00:00 4,7 2,5 - - 50 27 72 39 N 1012,6 10 0,2
25.04.2017 08:00:00 3,5 1,8 - - 44 24 81 44 N 1012,2 22 0,0
25.04.2017 07:00:00 3,7 1,8 - - 46 25 74 40 N 1011,5 20 0,6
25.04.2017 06:00:00 3,9 2,0 - - 42 23 76 41 N 1010,6 20 0,0
25.04.2017 05:00:00 3,6 2,0 - - 46 25 72 39 N 1009,8 24 1,4
25.04.2017 04:00:00 3,6 1,5 - - 52 28 83 45 N 1009,3 18 0,0
25.04.2017 03:00:00 3,2 1,3 - - 54 29 78 42 N 1009,0 11 0,2
25.04.2017 02:00:00 4,4 -0,6 - - 44 24 76 41 NNW 1008,9 19 0,0
25.04.2017 01:00:00 4,6 -1,0 - - 54 29 81 44 NNW 1009,3 18 0,0
25.04.2017 00:00:00 4,7 0,1 - - 42 23 67 36 N 1009,5 20 0,0
24.04.2017 23:00:00 4,0 1,2 - - 29 16 50 27 NNW 1009,6 19 0,2
24.04.2017 22:00:00 2,3 1,2 - - 39 21 72 39 N 1010,2 40 0,6
24.04.2017 21:00:00 3,2 -0,5 - - 37 20 55 30 NNW 1010,6 19 0,0
24.04.2017 20:00:00 3,0 -4,9 - - 34 18 52 28 NNW 1010,9 50 0,0
24.04.2017 19:00:00 2,0 -2,3 - - 35 19 46 25 NW 1011,1 40 0,0
24.04.2017 18:00:00 2,2 -1,7 - - 28 15 - - N 1011,0 30 0,0
24.04.2017 17:00:00 0,3 -1,4 - - 37 20 52 28 N 1011,1 1,6 0,0
24.04.2017 16:00:00 3,3 -5,6 - - 21 11 - - NW 1010,5 40 0,0
24.04.2017 15:00:00 3,6 -2,4 - - 21 11 - - NW 1010,6 35 0,0
24.04.2017 14:00:00 2,9 -3,7 - - 22 12 - - NW 1010,8 40 0,0
24.04.2017 13:00:00 3,3 -2,2 - - 24 13 - - NNW 1010,9 28 0,0
24.04.2017 12:00:00 2,7 -2,1 - - 26 14 - - N 1011,1 18 0,0
24.04.2017 11:00:00 1,5 -1,9 - - 28 15 - - NNW 1011,3 9 0,2
24.04.2017 10:00:00 3,0 -2,4 6,9 7,0 28 15 - - NNE 1011,2 12 0,0
24.04.2017 09:00:00 2,9 -2,1 - - 28 15 - - NNE 1010,9 35 0,0
24.04.2017 08:00:00 3,3 -2,5 - - 29 16 - - NNE 1010,6 40 0,0
24.04.2017 07:00:00 2,8 -2,0 - - 31 17 - - NNE 1010,4 40 0,0
24.04.2017 06:00:00 2,4 -3,0 - - 22 12 - - NNE 1011,1 45 0,0
24.04.2017 05:00:00 2,5 -2,3 - - 26 14 - - NNE 1011,3 30 0,0
24.04.2017 04:00:00 2,5 -2,7 - - 28 15 - - N 1011,3 40 0,0
24.04.2017 03:00:00 3,1 -1,7 - - 29 16 50 27 N 1011,4 50 0,0
24.04.2017 02:00:00 3,1 -1,0 - - 29 16 61 33 N 1010,9 40 0,2
24.04.2017 01:00:00 2,4 0,6 - - 35 19 59 32 N 1010,2 9 0,2
24.04.2017 00:00:00 3,4 0,6 - - 42 23 57 31 NNE 1009,0 29 0,0
23.04.2017 23:00:00 2,8 1,5 - - 50 27 67 36 NNE 1007,7 45 0,4
23.04.2017 22:00:00 3,3 2,5 - - 48 26 61 33 NNE 1006,4 4,5 1,0
23.04.2017 21:00:00 6,8 5,7 - - 42 23 65 35 W 1005,0 3,0 0,2
23.04.2017 20:00:00 7,7 7,2 - - 50 27 74 40 W 1005,6 6 2,4
23.04.2017 19:00:00 7,7 7,0 - - 48 26 78 42 WSW 1006,8 7 1,4
23.04.2017 18:00:00 7,5 7,0 - - 50 27 78 42 WSW 1008,3 4,2 1,8
23.04.2017 17:00:00 7,0 6,2 - - 52 28 81 44 WSW 1009,7 6 1,2
23.04.2017 16:00:00 6,8 5,9 - - 42 23 68 37 WSW 1011,6 6 1,6
23.04.2017 15:00:00 6,4 5,5 - - 37 20 52 28 SW 1013,6 7 1,2
23.04.2017 14:00:00 5,8 4,6 - - 22 12 - - WSW 1015,4 13 0,8
23.04.2017 13:00:00 5,6 4,2 - - 22 12 - - WSW 1016,9 13 0,6
23.04.2017 12:00:00 5,4 4,0 - - 15 8 - - W 1018,0 10 0,2
23.04.2017 11:00:00 5,8 3,1 - - 21 11 - - W 1018,6 10 0,0
23.04.2017 10:00:00 6,0 2,9 7,0 7,2 21 11 - - W 1019,2 20 0,2
23.04.2017 09:00:00 5,9 2,1 - - 24 13 - - W 1019,8 40 0,0
23.04.2017 08:00:00 5,1 2,4 - - 29 16 52 28 WNW 1020,1 22 0,0
23.04.2017 07:00:00 5,6 2,8 - - 22 12 - - W 1020,1 30 0,0
23.04.2017 06:00:00 4,7 3,3 - - 11 6 - - W 1020,8 30 1,8
23.04.2017 05:00:00 4,7 1,7 - - 18 10 - - SSW 1021,5 16 0,0
23.04.2017 04:00:00 4,4 0,2 - - 11 6 - - SW 1022,5 26 0,0
23.04.2017 03:00:00 3,8 -1,3 - - 5 3 - - W 1023,4 40 0,0
23.04.2017 02:00:00 4,0 -2,4 - - 9 5 - - WNW 1024,1 35 0,0
23.04.2017 01:00:00 4,0 -3,4 - - 21 11 - - NNW 1024,8 45 0,0
23.04.2017 00:00:00 3,9 -3,5 - - 26 14 52 28 NW 1025,0 45 0,0
22.04.2017 23:00:00 4,2 -2,2 - - 26 14 - - NW 1025,4 30 0,0
22.04.2017 22:00:00 4,4 -2,4 - - 28 15 50 27 NW 1025,4 28 0,0
22.04.2017 21:00:00 4,2 -1,3 - - 31 17 46 25 NW 1025,3 30 0,0
22.04.2017 20:00:00 4,2 -1,2 - - 26 14 50 27 NNW 1025,3 26 0,0
22.04.2017 19:00:00 3,9 -0,9 - - 37 20 50 27 NNW 1025,5 29 0,0
22.04.2017 18:00:00 4,2 0,2 - - 26 14 - - WNW 1025,6 22 0,0
22.04.2017 17:00:00 4,7 -2,8 - - 24 13 46 25 NW 1025,7 30 0,0
22.04.2017 16:00:00 5,0 -3,4 - - 26 14 52 28 NW 1025,7 24 0,0
22.04.2017 15:00:00 5,8 -2,3 - - 29 16 48 26 NW 1025,7 27 0,0
22.04.2017 14:00:00 5,1 -2,6 - - 29 16 52 28 NW 1025,8 30 0,0
22.04.2017 13:00:00 5,2 -2,4 - - 29 16 52 28 NW 1026,0 30 0,0
22.04.2017 12:00:00 5,2 -1,6 - - 24 13 50 27 NW 1026,0 15 0,0
22.04.2017 11:00:00 4,9 -2,1 - - 31 17 55 30 NW 1026,1 35 0,0
22.04.2017 10:00:00 4,6 -2,8 7,4 7,2 37 20 57 31 WNW 1026,0 16 0,0
22.04.2017 09:00:00 4,3 0,0 - - 28 15 76 41 NW 1026,0 17 0,0
22.04.2017 08:00:00 3,9 -0,1 - - 35 19 59 32 WNW 1025,7 19 0,0
22.04.2017 07:00:00 4,5 0,3 - - 34 18 57 31 WNW 1025,6 17 0,0
22.04.2017 06:00:00 4,3 -0,4 - - 31 17 59 32 WNW 1025,4 15 0,0
22.04.2017 05:00:00 4,4 0,1 - - 28 15 59 32 NW 1025,2 22 0,4
22.04.2017 04:00:00 3,3 1,3 - - 37 20 65 35 NNW 1025,2 9 0,4
22.04.2017 03:00:00 4,3 0,8 - - 34 18 63 34 WNW 1025,2 20 0,0
22.04.2017 02:00:00 3,9 0,1 - - 35 19 65 35 NW 1025,2 25 0,0
22.04.2017 01:00:00 4,3 0,9 - - 35 19 67 36 NW 1025,1 19 0,0
22.04.2017 00:00:00 3,7 0,3 - - 35 19 61 33 WNW 1025,0 24 0,0
21.04.2017 23:00:00 4,3 0,2 - - 39 21 61 33 WNW 1024,7 13 0,0
21.04.2017 22:00:00 4,3 -1,0 - - 37 20 72 39 WNW 1024,8 9 0,0
21.04.2017 21:00:00 4,6 -3,5 - - 41 22 68 37 WNW 1024,6 20 0,0
21.04.2017 20:00:00 4,7 -2,9 - - 41 22 78 42 WNW 1024,3 18 0,0
21.04.2017 19:00:00 4,9 -2,4 - - 44 24 70 38 WNW 1023,8 16 0,0
21.04.2017 18:00:00 5,5 -2,0 - - 41 22 67 36 WNW 1023,4 16 0,0
21.04.2017 17:00:00 5,7 -1,2 - - 39 21 61 33 WNW 1023,2 14 0,0
21.04.2017 16:00:00 6,2 -1,0 - - 39 21 67 36 WNW 1022,9 21 0,0
21.04.2017 15:00:00 6,2 -1,0 - - 42 23 70 38 WNW 1022,5 20 0,0
21.04.2017 14:00:00 6,6 -1,4 - - 42 23 68 37 WNW 1021,9 26 0,0
21.04.2017 13:00:00 6,2 1,8 - - 29 16 65 35 WNW 1021,6 30 0,0
21.04.2017 12:00:00 5,7 1,9 - - 39 21 94 51 WNW 1020,8 17 0,2
21.04.2017 11:00:00 7,7 2,1 - - 44 24 67 36 WNW 1019,9 12 0,0
21.04.2017 10:00:00 6,4 2,5 7,7 7,0 39 21 70 38 W 1019,7 14 0,2
21.04.2017 09:00:00 7,1 1,9 - - 42 23 65 35 W 1019,2 15 0,0
21.04.2017 08:00:00 6,9 2,6 - - 46 25 76 41 W 1019,1 19 0,2
21.04.2017 07:00:00 7,1 2,4 - - 42 23 67 36 W 1019,2 18 0,0
21.04.2017 06:00:00 7,0 3,6 - - 41 22 63 34 W 1019,4 17 0,0
21.04.2017 05:00:00 7,5 4,2 - - 42 23 61 33 W 1019,7 12 0,0
21.04.2017 04:00:00 7,3 4,7 - - 29 16 67 36 W 1020,1 10 0,0
21.04.2017 03:00:00 7,8 4,5 - - 34 18 57 31 W 1020,6 11 0,0
21.04.2017 02:00:00 7,6 4,8 - - 37 20 67 36 W 1021,2 12 0,0
21.04.2017 01:00:00 7,7 4,1 - - 41 22 63 34 W 1021,7 13 0,0
21.04.2017 00:00:00 7,7 3,4 - - 42 23 61 33 W 1022,3 18 0,0

tt = temperature
td = dewpoint
tt -20cm = temperature -20cm
tt -100cm = temperature -100cm
ff = wind speed
fx = gusts
dd = wind direction
ppp = reduced air pressure
vv = visibility
rr = precipitation

Next stations